When you browse on this site, cookies collect data to enhance your experience and personalize the content and advertising you see.
Visit our Privacy Policy to learn more. By continuing to use the site, you agree to this use of cookies and data.
  • En España
  • Lista de países
  • Para 7 días
  • Temperatura del agua
  • El tiempo en el mapa
  • Informadores
  • user-avatar
    Iniciar sesión

    Tiempo cada hora Shymkent

    Hoy, 1 Abril, Miércoles

    Tiempo Temperatura Precipitaciones Viento Presión Humedad
    00:00 +13°C° 0 mm 3 mps 710 mmHg 82%
    01:00 +14°C° 0 mm 2 mps 710 mmHg 80%
    02:00 +14°C° 0 mm 2 mps 710 mmHg 77%
    03:00 +13°C° 0 mm 2 mps 710 mmHg 76%
    04:00 +13°C° 0 mm 2 mps 710 mmHg 75%
    05:00 +12°C° 0 mm 3 mps 711 mmHg 75%
    06:00 +13°C° 0.1 mm 3 mps 711 mmHg 73%
    07:00 +14°C° 0.1 mm 4 mps 711 mmHg 72%
    08:00 +14°C° 0.1 mm 5 mps 712 mmHg 70%
    09:00 +15°C° 0.7 mm 5 mps 712 mmHg 70%
    10:00 +15°C° 0.7 mm 5 mps 713 mmHg 70%
    11:00 +16°C° 0.7 mm 6 mps 714 mmHg 69%
    12:00 +15°C° 1.3 mm 6 mps 714 mmHg 74%
    13:00 +14°C° 1.3 mm 7 mps 714 mmHg 78%
    14:00 +12°C° 1.3 mm 7 mps 714 mmHg 82%
    15:00 +12°C° 1.2 mm 7 mps 714 mmHg 80%
    16:00 +13°C° 1.2 mm 6 mps 715 mmHg 77%
    17:00 +13°C° 1.2 mm 5 mps 715 mmHg 75%
    18:00 +12°C° 0.1 mm 5 mps 716 mmHg 76%
    19:00 +11°C° 0.1 mm 4 mps 716 mmHg 77%
    20:00 +11°C° 0.1 mm 4 mps 716 mmHg 78%
    21:00 +10°C° 0.4 mm 5 mps 716 mmHg 80%
    22:00 +10°C° 0.4 mm 5 mps 717 mmHg 81%
    23:00 +10°C° 0.4 mm 6 mps 717 mmHg 82%

    Mañana, 2 Abril, Jueves

    Tiempo Temperatura Precipitaciones Viento Presión Humedad
    00:00 +9°C° 0.3 mm 5 mps 717 mmHg 82%
    01:00 +10°C° 0.3 mm 4 mps 717 mmHg 83%
    02:00 +10°C° 0.3 mm 3 mps 717 mmHg 83%
    03:00 +10°C° 0.1 mm 3 mps 717 mmHg 82%
    04:00 +10°C° 0.1 mm 3 mps 718 mmHg 81%
    05:00 +8°C° 0.1 mm 4 mps 718 mmHg 80%
    06:00 +10°C° 0 mm 3 mps 718 mmHg 75%
    07:00 +11°C° 0 mm 3 mps 719 mmHg 71%
    08:00 +12°C° 0 mm 3 mps 719 mmHg 67%
    09:00 +14°C° 0 mm 4 mps 719 mmHg 60%
    10:00 +15°C° 0 mm 4 mps 719 mmHg 54%
    11:00 +18°C° 0 mm 4 mps 719 mmHg 47%
    12:00 +18°C° 0 mm 4 mps 719 mmHg 45%
    13:00 +19°C° 0 mm 3 mps 718 mmHg 43%
    14:00 +19°C° 0 mm 3 mps 718 mmHg 41%
    15:00 +19°C° 0 mm 3 mps 718 mmHg 42%
    16:00 +19°C° 0 mm 2 mps 717 mmHg 43%
    17:00 +19°C° 0 mm 2 mps 717 mmHg 44%
    18:00 +17°C° 0 mm 2 mps 717 mmHg 49%
    19:00 +15°C° 0 mm 2 mps 717 mmHg 54%
    20:00 +13°C° 0 mm 2 mps 717 mmHg 59%
    21:00 +13°C° 0 mm 2 mps 717 mmHg 60%
    22:00 +13°C° 0 mm 2 mps 717 mmHg 60%
    23:00 +11°C° 0 mm 3 mps 717 mmHg 61%

    Pasado mañana, 3 Abril, Viernes

    Tiempo Temperatura Precipitaciones Viento Presión Humedad
    00:00 +11°C° 0 mm 3 mps 717 mmHg 59%
    01:00 +11°C° 0 mm 3 mps 717 mmHg 57%
    02:00 +11°C° 0 mm 3 mps 716 mmHg 56%
    03:00 +10°C° 0 mm 3 mps 716 mmHg 53%
    04:00 +10°C° 0 mm 3 mps 716 mmHg 50%
    05:00 +10°C° 0 mm 3 mps 716 mmHg 47%
    06:00 +12°C° 0 mm 3 mps 716 mmHg 47%
    07:00 +13°C° 0 mm 3 mps 716 mmHg 47%
    08:00 +14°C° 0 mm 3 mps 716 mmHg 47%
    09:00 +17°C° 0 mm 2 mps 717 mmHg 41%
    10:00 +19°C° 0 mm 2 mps 717 mmHg 35%
    11:00 +21°C° 0 mm 2 mps 717 mmHg 29%
    12:00 +23°C° 0 mm 2 mps 717 mmHg 27%
    13:00 +24°C° 0 mm 2 mps 716 mmHg 25%
    14:00 +24°C° 0 mm 2 mps 716 mmHg 23%
    15:00 +23°C° 0 mm 2 mps 716 mmHg 27%
    16:00 +23°C° 0 mm 2 mps 716 mmHg 32%
    17:00 +21°C° 0 mm 2 mps 715 mmHg 37%
    18:00 +19°C° 0 mm 3 mps 716 mmHg 39%
    19:00 +17°C° 0 mm 3 mps 716 mmHg 40%
    20:00 +16°C° 0 mm 3 mps 716 mmHg 42%
    21:00 +14°C° 0 mm 3 mps 716 mmHg 43%
    22:00 +15°C° 0 mm 2 mps 716 mmHg 44%
    23:00 +15°C° 0 mm 2 mps 716 mmHg 45%

    4 Abril, Sábado

    Tiempo Temperatura Precipitaciones Viento Presión Humedad
    00:00 +15°C° 0 mm 2 mps 715 mmHg 45%
    01:00 +15°C° 0 mm 2 mps 715 mmHg 45%
    02:00 +14°C° 0 mm 3 mps 715 mmHg 44%
    03:00 +14°C° 0 mm 3 mps 715 mmHg 44%
    04:00 +14°C° 0 mm 3 mps 715 mmHg 44%
    05:00 +14°C° 0 mm 3 mps 715 mmHg 43%
    06:00 +16°C° 0 mm 3 mps 715 mmHg 45%
    07:00 +17°C° 0 mm 2 mps 715 mmHg 47%
    08:00 +18°C° 0 mm 2 mps 715 mmHg 48%
    09:00 +20°C° 0 mm 2 mps 716 mmHg 42%
    10:00 +24°C° 0 mm 2 mps 716 mmHg 35%
    11:00 +26°C° 0 mm 1 mps 716 mmHg 28%
    12:00 +26°C° 0 mm 2 mps 716 mmHg 28%
    13:00 +27°C° 0 mm 2 mps 715 mmHg 28%
    14:00 +27°C° 0 mm 2 mps 715 mmHg 28%
    15:00 +26°C° 0 mm 2 mps 715 mmHg 32%
    16:00 +26°C° 0 mm 2 mps 714 mmHg 36%
    17:00 +25°C° 0 mm 2 mps 714 mmHg 40%
    18:00 +23°C° 0 mm 1 mps 714 mmHg 41%
    19:00 +21°C° 0 mm 1 mps 714 mmHg 41%
    20:00 +20°C° 0 mm 1 mps 714 mmHg 42%
    21:00 +19°C° 0 mm 1 mps 714 mmHg 42%
    22:00 +19°C° 0 mm 1 mps 713 mmHg 42%
    23:00 +19°C° 0 mm 1 mps 713 mmHg 43%

    5 Abril, Domingo

    Tiempo Temperatura Precipitaciones Viento Presión Humedad
    00:00 +18°C° 0 mm 1 mps 713 mmHg 44%
    01:00 +16°C° 0 mm 1 mps 713 mmHg 45%
    02:00 +16°C° 0 mm 1 mps 713 mmHg 46%
    03:00 +15°C° 0 mm 1 mps 713 mmHg 46%
    04:00 +15°C° 0 mm 1 mps 713 mmHg 47%
    05:00 +14°C° 0 mm 1 mps 713 mmHg 48%
    06:00 +16°C° 0 mm 1 mps 714 mmHg 49%
    07:00 +18°C° 0 mm 1 mps 714 mmHg 49%
    08:00 +19°C° 0 mm 1 mps 715 mmHg 50%
    09:00 +19°C° 0 mm 2 mps 715 mmHg 50%
    10:00 +20°C° 0 mm 3 mps 715 mmHg 49%
    11:00 +21°C° 0 mm 3 mps 715 mmHg 49%
    12:00 +21°C° 0 mm 4 mps 715 mmHg 48%
    13:00 +22°C° 0 mm 4 mps 715 mmHg 48%
    14:00 +22°C° 0 mm 5 mps 715 mmHg 47%
    15:00 +22°C° 0.2 mm 4 mps 715 mmHg 52%
    16:00 +21°C° 0.2 mm 3 mps 715 mmHg 56%
    17:00 +20°C° 0.2 mm 2 mps 715 mmHg 61%
    18:00 +18°C° 0 mm 2 mps 715 mmHg 64%
    19:00 +18°C° 0 mm 1 mps 715 mmHg 67%
    20:00 +15°C° 0 mm 1 mps 715 mmHg 71%
    21:00 +15°C° 0.1 mm 1 mps 715 mmHg 72%
    22:00 +15°C° 0.1 mm 2 mps 716 mmHg 73%
    23:00 +15°C° 0.1 mm 2 mps 716 mmHg 74%

    6 Abril, Lunes

    Tiempo Temperatura Precipitaciones Viento Presión Humedad
    00:00 +14°C° 0.2 mm 2 mps 716 mmHg 79%
    01:00 +12°C° 0.2 mm 3 mps 715 mmHg 83%
    02:00 +11°C° 0.2 mm 3 mps 715 mmHg 88%
    03:00 +12°C° 0 mm 2 mps 715 mmHg 90%
    04:00 +11°C° 0 mm 1 mps 715 mmHg 92%
    05:00 +10°C° 0 mm 0 mps 715 mmHg 94%
    06:00 +10°C° 0 mm 0 mps 715 mmHg 92%
    07:00 +12°C° 0 mm 1 mps 716 mmHg 89%
    08:00 +12°C° 0 mm 1 mps 716 mmHg 87%
    09:00 +14°C° 0 mm 1 mps 716 mmHg 82%
    10:00 +16°C° 0 mm 2 mps 716 mmHg 76%
    11:00 +17°C° 0 mm 2 mps 715 mmHg 70%
    12:00 +18°C° 0 mm 2 mps 715 mmHg 66%
    13:00 +19°C° 0 mm 3 mps 715 mmHg 62%
    14:00 +20°C° 0 mm 3 mps 715 mmHg 58%
    15:00 +20°C° 0 mm 3 mps 715 mmHg 59%
    16:00 +20°C° 0 mm 3 mps 714 mmHg 60%
    17:00 +19°C° 0 mm 3 mps 714 mmHg 61%
    18:00 +18°C° 0 mm 3 mps 714 mmHg 66%
    19:00 +16°C° 0 mm 2 mps 714 mmHg 72%
    20:00 +15°C° 0 mm 1 mps 714 mmHg 77%
    21:00 +14°C° 0 mm 1 mps 714 mmHg 79%
    22:00 +14°C° 0 mm 1 mps 715 mmHg 80%
    23:00 +14°C° 0 mm 1 mps 715 mmHg 81%
    Mostrar más